Location: B�rgermoos
(47.6500°N, 9.0667°E)
Time: 15:34:15
(UTC+00:00)

GP-B - Pass Details

Date: 18 September 2020
Orbit: 631 x 635 km, 89.8° (Epoch: 24 October)

Event Time Altitude Azimuth Distance (km) Brightness Sun altitude
Rises 18:17:54 0° 356° (N) 2,945 6.8 -9.0°
Reaches altitude 10° 18:20:11 10° 351° (N) 2,030 6.0 -9.4°
Maximum altitude 18:24:27 47° 278° (W) 845 4.3 -10.1°
Drops below altitude 10° 18:28:42 10° 205° (SSW) 2,012 5.8 -10.8°
Sets 18:30:57 0° 199° (SSW) 2,914 6.6 -11.1°
